Terminal Aerodrome Forecast
Issued by NWS Riverton, WY

Home | Current Version | Previous Version | Text Only | Print | Product List | Glossary On
Versions: 1 2 3 4 5 6 7 8 9 10 11 12 13 14 15 16 17 18 19 20 21
000
FTUS45 KRIW 211700
TAFRIW
TAF
KRIW 211720Z 2118/2218 24007KT P6SM BKN100 WS020/27035KT
     FM220100 30018G28KT P6SM VCSH BKN070
     FM220800 30028G38KT P6SM SCT070=

USA.gov is the U.S. government's official web portal to all federal, state and local government web resources and services.